Time,TemperatureF,DewpointF,PressureIn,WindDirection,WindDirectionDegrees,WindSpeedMPH,WindSpeedGustMPH,Humidity,HourlyPrecipIn,Conditions,Clouds,dailyrainin,SolarRadiationWatts/m^2,SoftwareType,DateUTC
2013-07-13 00:00:00,55.0,-99.9,-100.00,NNW,327,7.0,9.0,-999,-99.99,,,0.00,93.699997,,2013-07-13 06:00:00,
2013-07-13 00:52:00,55.0,-99.9,-100.00,NNW,327,7.0,9.0,-999,-99.99,,,0.00,93.699997,,2013-07-13 06:52:00,
2013-07-13 01:00:00,53.0,-99.9,-100.00,North,-999,-999.0,-999.0,-999,-99.99,,,0.00,,,2013-07-13 07:00:00,
2013-07-13 02:00:00,50.0,-99.9,-100.00,NNW,328,5.0,7.0,-999,-99.99,,,0.00,93.400002,,2013-07-13 08:00:00,
2013-07-13 02:52:00,50.0,-99.9,-100.00,NNW,328,5.0,7.0,-999,-99.99,,,0.00,93.400002,,2013-07-13 08:52:00,
2013-07-13 03:00:00,48.0,-99.9,-100.00,North,-999,-999.0,-999.0,-999,-99.99,,,0.00,,,2013-07-13 09:00:00,
2013-07-13 04:00:00,47.0,-99.9,-100.00,North,4,3.0,7.0,-999,-99.99,,,0.00,93.400002,,2013-07-13 10:00:00,
2013-07-13 05:00:00,44.0,-99.9,-100.00,NW,325,2.0,4.0,-999,-99.99,,,0.00,93.500000,,2013-07-13 11:00:00,
2013-07-13 06:00:00,42.0,-99.9,-100.00,ENE,66,1.0,2.0,-999,-99.99,,,0.00,93.599998,,2013-07-13 12:00:00,
2013-07-13 08:00:00,48.0,-99.9,-100.00,North,-999,-999.0,-999.0,-999,-99.99,,,0.00,,,2013-07-13 14:00:00,
2013-07-13 08:53:00,48.0,-99.9,-100.00,North,-999,-999.0,-999.0,-999,-99.99,,,0.00,,,2013-07-13 14:53:00,
2013-07-13 09:00:00,60.0,-99.9,-100.00,NNW,331,1.0,3.0,-999,-99.99,,,0.00,93.800003,,2013-07-13 15:00:00,
2013-07-13 10:00:00,63.0,-99.9,-100.00,North,-999,-999.0,-999.0,-999,-99.99,,,0.00,,,2013-07-13 16:00:00,
2013-07-13 10:53:00,63.0,-99.9,-100.00,North,-999,-999.0,-999.0,-999,-99.99,,,0.00,,,2013-07-13 16:53:00,
2013-07-13 11:00:00,66.0,-99.9,-100.00,NW,310,2.0,6.0,-999,-99.99,,,0.00,93.800003,,2013-07-13 17:00:00,
2013-07-13 12:00:00,68.0,-99.9,-100.00,NNW,327,4.0,8.0,-999,-99.99,,,0.00,93.500000,,2013-07-13 18:00:00,
2013-07-13 13:00:00,69.0,-99.9,-100.00,North,-999,-999.0,-999.0,-999,-99.99,,,-99.99,,,2013-07-13 19:00:00,
2013-07-13 13:52:00,69.0,-99.9,-100.00,North,-999,-999.0,-999.0,-999,-99.99,,,-99.99,,,2013-07-13 19:52:00,
2013-07-13 15:00:00,73.0,-99.9,-100.00,WNW,301,3.0,7.0,-999,-99.99,,,-99.99,93.500000,,2013-07-13 21:00:00,
2013-07-13 15:53:00,73.0,-99.9,-100.00,WNW,301,3.0,7.0,-999,-99.99,,,-99.99,93.500000,,2013-07-13 21:53:00,
2013-07-13 16:00:00,77.0,-99.9,-100.00,North,-999,-999.0,-999.0,-999,-99.99,,,-99.99,,,2013-07-13 22:00:00,
2013-07-13 16:53:00,77.0,-99.9,-100.00,North,-999,-999.0,-999.0,-999,-99.99,,,-99.99,,,2013-07-13 22:53:00,
2013-07-13 17:00:00,76.0,-99.9,-100.00,NW,310,3.0,9.0,-999,-99.99,,,0.00,93.599998,,2013-07-13 23:00:00,
2013-07-13 17:53:00,76.0,-99.9,-100.00,NW,310,3.0,9.0,-999,-99.99,,,0.00,93.599998,,2013-07-13 23:53:00,
2013-07-13 18:00:00,76.0,-99.9,-100.00,NW,315,4.0,11.0,-999,-99.99,,,0.00,93.500000,,2013-07-14 00:00:00,
2013-07-13 19:00:00,75.0,-99.9,-100.00,WNW,302,3.0,6.0,-999,-99.99,,,0.00,93.599998,,2013-07-14 01:00:00,
2013-07-13 19:52:00,75.0,-99.9,-100.00,WNW,302,3.0,6.0,-999,-99.99,,,0.00,93.599998,,2013-07-14 01:52:00,
2013-07-13 20:00:00,73.0,-99.9,-100.00,NW,310,3.0,5.0,-999,-99.99,,,0.00,93.800003,,2013-07-14 02:00:00,
2013-07-13 21:00:00,69.0,-99.9,-100.00,NW,317,2.0,5.0,-999,-99.99,,,0.00,94.000000,,2013-07-14 03:00:00,
2013-07-13 22:00:00,57.0,-99.9,-100.00,WNW,292,4.0,6.0,-999,-99.99,,,0.00,94.199997,,2013-07-14 04:00:00,